| time (UTC) | temp C | wind direction | speed KPH | gust KPH | rain 1hr cm | rain 24hr cm | rain mn cm | humidity % | barometer mb |
| 20260507033815 | 11 | 0 | 0.0 | 0.0 | 0.00 | 0.00 | 0.00 | 75 | 1004.2 |
| 20260507032915 | 11 | 0 | 0.0 | 0.0 | 0.00 | 0.00 | 0.00 | 75 | 1004.1 |
| 20260507032014 | 11 | 0 | 0.0 | 0.0 | 0.00 | 0.00 | 0.00 | 75 | 1004.0 |
| 20260507031115 | 11 | 0 | 0.0 | 0.0 | 0.00 | 0.00 | 0.00 | 75 | 1004.0 |
| 20260507030215 | 11 | 0 | 0.0 | 0.0 | 0.00 | 0.00 | 0.00 | 75 | 1003.8 |
| 20260507025314 | 12 | 0 | 0.0 | 0.0 | 0.00 | 0.00 | 0.00 | 75 | 1004.0 |
| 20260507024414 | 12 | 0 | 0.0 | 0.0 | 0.00 | 0.00 | 0.00 | 75 | 1003.9 |
| 20260507023514 | 12 | 0 | 0.0 | 0.0 | 0.00 | 0.00 | 0.00 | 74 | 1004.0 |
| 20260507022614 | 12 | 0 | 0.0 | 0.0 | 0.00 | 0.00 | 0.00 | 74 | 1004.0 |
| 20260507021714 | 12 | 0 | 0.0 | 0.0 | 0.00 | 0.00 | 0.00 | 74 | 1004.1 |
| 20260507020815 | 12 | 0 | 0.0 | 0.0 | 0.00 | 0.00 | 0.00 | 71 | 1004.0 |
| 20260507015915 | 12 | 0 | 0.0 | 0.0 | 0.00 | 0.00 | 0.00 | 71 | 1004.2 |
| 20260507015013 | 12 | 0 | 0.0 | 0.0 | 0.00 | 0.00 | 0.00 | 71 | 1004.2 |
| 20260507014115 | 12 | 0 | 0.0 | 1.6 | 0.00 | 0.00 | 0.00 | 71 | 1004.3 |
| 20260507013215 | 12 | 0 | 0.0 | 0.0 | 0.00 | 0.00 | 0.00 | 71 | 1004.4 |
| 20260507012315 | 12 | 0 | 0.0 | 1.6 | 0.00 | 0.00 | 0.00 | 71 | 1004.5 |
| 20260507011415 | 12 | 0 | 0.0 | 0.0 | 0.00 | 0.00 | 0.00 | 70 | 1004.6 |
| 20260507010514 | 12 | 0 | 0.0 | 1.6 | 0.00 | 0.00 | 0.00 | 70 | 1004.7 |
| 20260507005615 | 13 | 0 | 0.0 | 0.0 | 0.00 | 0.00 | 0.00 | 70 | 1004.8 |
| 20260507004715 | 13 | 0 | 0.0 | 0.0 | 0.00 | 0.00 | 0.00 | 70 | 1004.6 |
| 20260507003815 | 13 | 0 | 0.0 | 0.0 | 0.00 | 0.00 | 0.00 | 70 | 1004.8 |
| 20260507002915 | 13 | 0 | 0.0 | 0.0 | 0.00 | 0.00 | 0.00 | 70 | 1004.6 |
| 20260507002014 | 13 | 0 | 0.0 | 0.0 | 0.00 | 0.00 | 0.00 | 69 | 1004.9 |
| 20260507001114 | 13 | 0 | 0.0 | 0.0 | 0.00 | 0.00 | 0.00 | 69 | 1004.8 |
| 20260507000214 | 13 | 0 | 0.0 | 0.0 | 0.00 | 0.00 | 0.00 | 68 | 1004.8 |
| 20260506235314 | 13 | 0 | 0.0 | 0.0 | 0.00 | 0.00 | 0.00 | 68 | 1005.1 |
| 20260506234415 | 13 | 0 | 0.0 | 0.0 | 0.00 | 0.00 | 0.00 | 67 | 1005.2 |
| 20260506233515 | 13 | 0 | 0.0 | 0.0 | 0.00 | 0.00 | 0.00 | 67 | 1005.1 |
| 20260506232614 | 14 | 0 | 0.0 | 0.0 | 0.00 | 0.00 | 0.00 | 66 | 1005.3 |
| 20260506231715 | 14 | 0 | 0.0 | 1.6 | 0.00 | 0.00 | 0.00 | 65 | 1005.3 |
| 20260506230814 | 14 | 0 | 0.0 | 1.6 | 0.00 | 0.00 | 0.00 | 65 | 1005.2 |
| 20260506225914 | 14 | 0 | 1.6 | 1.6 | 0.00 | 0.00 | 0.00 | 65 | 1005.5 |
| 20260506225014 | 14 | 0 | 1.6 | 1.6 | 0.00 | 0.00 | 0.00 | 65 | 1005.4 |
| 20260506224115 | 14 | 0 | 0.0 | 1.6 | 0.00 | 0.00 | 0.00 | 65 | 1005.6 |
| 20260506223215 | 15 | 0 | 1.6 | 4.8 | 0.00 | 0.00 | 0.00 | 65 | 1005.6 |
| 20260506222314 | 15 | 0 | 0.0 | 1.6 | 0.00 | 0.00 | 0.00 | 65 | 1005.5 |
| 20260506221415 | 15 | 0 | 3.2 | 4.8 | 0.00 | 0.00 | 0.00 | 65 | 1005.4 |
| 20260506220515 | 15 | 0 | 0.0 | 0.0 | 0.00 | 0.00 | 0.00 | 64 | 1005.8 |
| 20260506215615 | 15 | 0 | 0.0 | 0.0 | 0.00 | 0.00 | 0.00 | 64 | 1005.7 |
| 20260506214714 | 15 | 0 | 0.0 | 1.6 | 0.00 | 0.00 | 0.00 | 64 | 1005.9 |
| 20260506213814 | 15 | 0 | 0.0 | 1.6 | 0.00 | 0.00 | 0.00 | 63 | 1005.8 |
| 20260506212914 | 15 | 0 | 0.0 | 0.0 | 0.00 | 0.00 | 0.00 | 64 | 1005.7 |
| 20260506212013 | 15 | 0 | 0.0 | 1.6 | 0.00 | 0.00 | 0.00 | 63 | 1005.9 |
| 20260506211115 | 15 | 0 | 0.0 | 1.6 | 0.00 | 0.00 | 0.00 | 63 | 1005.9 |
| 20260506210214 | 16 | 0 | 0.0 | 1.6 | 0.00 | 0.00 | 0.00 | 63 | 1005.9 |
| 20260506205315 | 16 | 0 | 0.0 | 0.0 | 0.00 | 0.00 | 0.00 | 63 | 1005.8 |
| 20260506204414 | 16 | 0 | 0.0 | 0.0 | 0.00 | 0.00 | 0.00 | 62 | 1006.0 |
| 20260506203514 | 16 | 0 | 0.0 | 0.0 | 0.00 | 0.00 | 0.00 | 62 | 1005.7 |
| 20260506202615 | 16 | 0 | 0.0 | 1.6 | 0.00 | 0.00 | 0.00 | 62 | 1005.8 |
| 20260506201714 | 16 | 0 | 0.0 | 0.0 | 0.00 | 0.00 | 0.00 | 62 | 1005.7 |
| 20260506200814 | 16 | 0 | 0.0 | 1.6 | 0.00 | 0.00 | 0.00 | 62 | 1005.6 |
| 20260506195913 | 16 | 0 | 0.0 | 0.0 | 0.00 | 0.00 | 0.00 | 61 | 1005.8 |
| 20260506195014 | 16 | 0 | 0.0 | 1.6 | 0.00 | 0.00 | 0.00 | 61 | 1005.9 |
| 20260506194114 | 16 | 0 | 0.0 | 1.6 | 0.00 | 0.00 | 0.00 | 60 | 1005.7 |
| 20260506193214 | 16 | 0 | 0.0 | 1.6 | 0.00 | 0.00 | 0.00 | 60 | 1005.7 |
| 20260506192314 | 16 | 0 | 0.0 | 0.0 | 0.00 | 0.00 | 0.00 | 60 | 1005.6 |
| 20260506191415 | 16 | 0 | 0.0 | 0.0 | 0.00 | 0.00 | 0.00 | 59 | 1005.8 |
| 20260506190514 | 17 | 0 | 0.0 | 0.0 | 0.00 | 0.00 | 0.00 | 59 | 1005.8 |
| 20260506185614 | 17 | 0 | 0.0 | 0.0 | 0.00 | 0.00 | 0.00 | 58 | 1005.9 |
| 20260506184715 | 17 | 0 | 0.0 | 1.6 | 0.00 | 0.00 | 0.00 | 59 | 1005.7 |
| 20260506183815 | 17 | 0 | 0.0 | 1.6 | 0.00 | 0.00 | 0.00 | 58 | 1005.7 |
| 20260506182915 | 17 | 0 | 0.0 | 0.0 | 0.00 | 0.00 | 0.00 | 58 | 1005.6 |
| 20260506182015 | 17 | 0 | 0.0 | 1.6 | 0.00 | 0.00 | 0.00 | 56 | 1005.7 |
| 20260506181114 | 17 | 0 | 0.0 | 1.6 | 0.00 | 0.00 | 0.00 | 55 | 1005.8 |
| 20260506180214 | 17 | 0 | 0.0 | 4.8 | 0.00 | 0.00 | 0.00 | 51 | 1005.8 |
| 20260506175315 | 17 | 0 | 0.0 | 1.6 | 0.00 | 0.00 | 0.00 | 51 | 1005.6 |
| 20260506174414 | 17 | 0 | 0.0 | 3.2 | 0.00 | 0.00 | 0.00 | 52 | 1005.7 |
| 20260506173515 | 18 | 0 | 1.6 | 4.8 | 0.00 | 0.00 | 0.00 | 54 | 1005.7 |
| 20260506172614 | 18 | 22 | 1.6 | 1.6 | 0.00 | 0.00 | 0.00 | 52 | 1005.6 |
| 20260506171714 | 18 | 0 | 0.0 | 1.6 | 0.00 | 0.00 | 0.00 | 52 | 1005.8 |
| 20260506170814 | 18 | 0 | 0.0 | 1.6 | 0.00 | 0.00 | 0.00 | 52 | 1005.6 |
| 20260506165914 | 19 | 0 | 0.0 | 1.6 | 0.00 | 0.00 | 0.00 | 51 | 1005.9 |
| 20260506165015 | 20 | 0 | 3.2 | 4.8 | 0.00 | 0.00 | 0.00 | 50 | 1005.9 |
| 20260506164114 | 21 | 0 | 0.0 | 1.6 | 0.00 | 0.00 | 0.00 | 46 | 1005.9 |
| 20260506163214 | 22 | 0 | 1.6 | 4.8 | 0.00 | 0.00 | 0.00 | 42 | 1005.9 |
| 20260506162314 | 22 | 0 | 1.6 | 3.2 | 0.00 | 0.00 | 0.00 | 40 | 1006.0 |
| 20260506161415 | 22 | 0 | 0.0 | 1.6 | 0.00 | 0.00 | 0.00 | 45 | 1006.1 |
| 20260506160514 | 21 | 0 | 0.0 | 3.2 | 0.00 | 0.00 | 0.00 | 47 | 1006.2 |
| 20260506155615 | 20 | 0 | 0.0 | 1.6 | 0.00 | 0.00 | 0.00 | 49 | 1006.2 |
| 20260506154714 | 20 | 0 | 1.6 | 3.2 | 0.00 | 0.00 | 0.00 | 47 | 1006.3 |
| 20260506153815 | 21 | 0 | 1.6 | 4.8 | 0.00 | 0.00 | 0.00 | 46 | 1006.4 |
| 20260506152914 | 21 | 0 | 1.6 | 3.2 | 0.00 | 0.00 | 0.00 | 48 | 1006.5 |
| 20260506152015 | 19 | 0 | 0.0 | 1.6 | 0.00 | 0.00 | 0.00 | 50 | 1006.7 |
| 20260506151115 | 19 | 0 | 1.6 | 4.8 | 0.00 | 0.00 | 0.00 | 49 | 1007.0 |
| 20260506150215 | 19 | 0 | 1.6 | 3.2 | 0.00 | 0.00 | 0.00 | 52 | 1006.8 |
| 20260506145314 | 18 | 0 | 1.6 | 3.2 | 0.00 | 0.00 | 0.00 | 55 | 1007.1 |
| 20260506144415 | 17 | 0 | 1.6 | 3.2 | 0.00 | 0.00 | 0.00 | 58 | 1007.1 |
| 20260506143514 | 17 | 0 | 1.6 | 3.2 | 0.00 | 0.00 | 0.00 | 62 | 1007.2 |
| 20260506142615 | 17 | 0 | 1.6 | 1.6 | 0.00 | 0.00 | 0.00 | 60 | 1007.4 |
| 20260506141714 | 17 | 0 | 1.6 | 3.2 | 0.00 | 0.00 | 0.00 | 56 | 1007.6 |
| 20260506140814 | 17 | 0 | 0.0 | 3.2 | 0.00 | 0.00 | 0.00 | 56 | 1007.6 |
| 20260506135914 | 18 | 0 | 1.6 | 4.8 | 0.00 | 0.00 | 0.00 | 55 | 1007.7 |
| 20260506135015 | 18 | 0 | 0.0 | 1.6 | 0.00 | 0.00 | 0.00 | 58 | 1007.7 |
| 20260506134114 | 18 | 0 | 1.6 | 3.2 | 0.00 | 0.00 | 0.00 | 56 | 1007.8 |
| 20260506133214 | 18 | 0 | 1.6 | 4.8 | 0.00 | 0.00 | 0.00 | 55 | 1007.7 |
| 20260506132313 | 18 | 0 | 1.6 | 3.2 | 0.00 | 0.00 | 0.00 | 54 | 1007.9 |
| 20260506131414 | 19 | 0 | 0.0 | 3.2 | 0.00 | 0.00 | 0.00 | 51 | 1007.6 |
| 20260506130514 | 20 | 0 | 3.2 | 4.8 | 0.00 | 0.00 | 0.00 | 50 | 1007.7 |
| 20260506125615 | 20 | 0 | 1.6 | 3.2 | 0.00 | 0.00 | 0.00 | 50 | 1007.6 |
| 20260506124714 | 20 | 0 | 1.6 | 1.6 | 0.00 | 0.00 | 0.00 | 51 | 1007.6 |
| 20260506123814 | 20 | 0 | 1.6 | 1.6 | 0.00 | 0.00 | 0.00 | 51 | 1007.6 |
| 20260506122914 | 19 | 0 | 0.0 | 1.6 | 0.00 | 0.00 | 0.00 | 49 | 1007.8 |
| 20260506122015 | 18 | 0 | 1.6 | 1.6 | 0.00 | 0.00 | 0.00 | 48 | 1007.9 |
| 20260506121114 | 19 | 0 | 0.0 | 1.6 | 0.00 | 0.00 | 0.00 | 46 | 1008.0 |
| 20260506120214 | 20 | 0 | 1.6 | 4.8 | 0.00 | 0.00 | 0.00 | 46 | 1008.1 |
| 20260506115315 | 19 | 0 | 1.6 | 3.2 | 0.00 | 0.00 | 0.00 | 48 | 1008.0 |
| 20260506114413 | 19 | 0 | 1.6 | 3.2 | 0.00 | 0.00 | 0.00 | 47 | 1008.2 |
| 20260506113514 | 19 | 0 | 0.0 | 1.6 | 0.00 | 0.00 | 0.00 | 46 | 1008.3 |
| 20260506112613 | 18 | 0 | 0.0 | 4.8 | 0.00 | 0.00 | 0.00 | 47 | 1008.4 |
| 20260506111713 | 18 | 0 | 1.6 | 1.6 | 0.00 | 0.00 | 0.00 | 48 | 1008.4 |
| 20260506110814 | 18 | 0 | 1.6 | 1.6 | 0.00 | 0.00 | 0.00 | 48 | 1008.5 |
| 20260506105915 | 18 | 0 | 0.0 | 3.2 | 0.00 | 0.00 | 0.00 | 47 | 1008.4 |
| 20260506105015 | 18 | 0 | 1.6 | 4.8 | 0.00 | 0.00 | 0.00 | 49 | 1008.6 |
| 20260506104114 | 18 | 0 | 3.2 | 4.8 | 0.00 | 0.00 | 0.00 | 49 | 1008.8 |
| 20260506103214 | 18 | 0 | 0.0 | 1.6 | 0.00 | 0.00 | 0.00 | 51 | 1008.7 |
| 20260506102314 | 17 | 0 | 1.6 | 3.2 | 0.00 | 0.00 | 0.00 | 51 | 1008.7 |
| 20260506101413 | 17 | 0 | 0.0 | 1.6 | 0.00 | 0.00 | 0.00 | 50 | 1008.6 |
| 20260506100514 | 17 | 0 | 1.6 | 3.2 | 0.00 | 0.00 | 0.00 | 50 | 1008.7 |
| 20260506095613 | 17 | 0 | 1.6 | 3.2 | 0.00 | 0.00 | 0.00 | 53 | 1008.6 |
| 20260506094713 | 16 | 0 | 1.6 | 1.6 | 0.00 | 0.00 | 0.00 | 53 | 1008.9 |
| 20260506093814 | 17 | 0 | 1.6 | 4.8 | 0.00 | 0.00 | 0.00 | 53 | 1008.8 |
| 20260506092914 | 16 | 0 | 0.0 | 1.6 | 0.00 | 0.00 | 0.00 | 54 | 1008.7 |
| 20260506092014 | 16 | 0 | 1.6 | 3.2 | 0.00 | 0.00 | 0.00 | 55 | 1009.0 |
| 20260506091114 | 16 | 0 | 1.6 | 3.2 | 0.00 | 0.00 | 0.00 | 55 | 1008.8 |
| 20260506090213 | 16 | 0 | 0.0 | 1.6 | 0.00 | 0.00 | 0.00 | 60 | 1009.0 |
| 20260506085314 | 16 | 0 | 0.0 | 0.0 | 0.00 | 0.00 | 0.00 | 61 | 1008.9 |
| 20260506084414 | 16 | 0 | 0.0 | 1.6 | 0.00 | 0.00 | 0.00 | 61 | 1009.0 |
| 20260506083515 | 16 | 0 | 0.0 | 1.6 | 0.00 | 0.00 | 0.00 | 62 | 1008.9 |
| 20260506082614 | 15 | 0 | 0.0 | 1.6 | 0.00 | 0.03 | 0.00 | 63 | 1008.8 |
| 20260506081715 | 15 | 0 | 0.0 | 0.0 | 0.00 | 0.03 | 0.00 | 66 | 1008.8 |
| 20260506080814 | 15 | 0 | 0.0 | 1.6 | 0.00 | 0.03 | 0.00 | 67 | 1008.7 |
| 20260506073214 | 13 | 0 | 0.0 | 1.6 | 0.00 | 0.15 | 0.00 | 70 | 1008.8 |
| 20260506072314 | 13 | 0 | 0.0 | 1.6 | 0.00 | 0.28 | 0.00 | 71 | 1009.0 |
| 20260506071415 | 13 | 0 | 0.0 | 0.0 | 0.00 | 0.33 | 0.00 | 72 | 1008.8 |
| 20260506070514 | 13 | 0 | 0.0 | 0.0 | 0.00 | 0.33 | 0.00 | 72 | 1009.0 |
| 20260506062015 | 12 | 0 | 0.0 | 0.0 | 0.00 | 0.38 | 0.00 | 76 | 1008.6 |
| 20260506061115 | 12 | 0 | 0.0 | 1.6 | 0.00 | 0.38 | 0.00 | 76 | 1008.4 |
| 20260506060215 | 12 | 0 | 0.0 | 1.6 | 0.00 | 0.43 | 0.00 | 77 | 1008.6 |
| 20260506050815 | 12 | 0 | 0.0 | 0.0 | 0.00 | 0.64 | 0.00 | 73 | 1008.6 |
| 20260506045015 | 12 | 0 | 0.0 | 0.0 | 0.00 | 0.76 | 0.00 | 73 | 1008.5 |
| 20260506044115 | 12 | 0 | 0.0 | 1.6 | 0.00 | 0.79 | 0.00 | 73 | 1008.5 |
| 20260506043214 | 12 | 0 | 0.0 | 0.0 | 0.00 | 0.81 | 0.00 | 73 | 1008.5 |
| 20260506042315 | 12 | 0 | 0.0 | 1.6 | 0.00 | 0.81 | 0.00 | 73 | 1008.5 |
| 20260506041415 | 12 | 0 | 0.0 | 0.0 | 0.00 | 0.81 | 0.00 | 73 | 1008.6 |
| 20260506040516 | 12 | 0 | 0.0 | 0.0 | 0.00 | 0.86 | 0.00 | 73 | 1008.6 |
| 20260506035615 | 13 | 0 | 0.0 | 1.6 | 0.00 | 0.86 | 0.00 | 73 | 1008.7 |
| 20260506034714 | 13 | 0 | 0.0 | 1.6 | 0.00 | 0.89 | 0.00 | 73 | 1008.6 |